Погода в Кыбартаи

Поиск расширенной информации на нашем сайте:

Полезная информация:

Новости сайта



02.01.2020
Опубликован Долгосрочный прогноз погоды по городам России и ближнего зарубежья на январь 2020 года.
Карты: Прогноз на январь и февраль 2020 года, Сравнение прогнозируемой аномалии приземной температуры воздуха на январь 2020 года по разным моделям.




Погода в Кыбартаи - сегодня

Время (UTC), дата Ветер
(°,м/с) 
Видим.   Явления Облачность Т
(°С)
Тd
(°С)
f(%) Тe
(°С)
Pmin
(гПа)
dP
(гПа)
Po
(мм)
O2
(г/м3)
Тmin Tmax R s Состояние
почвы
06 01.06.20 030 (СВ) 5-8{09}  20000 м    ясно 
+12.5 +1.8 48 +12  1022.1  0.3  761  293  +7         
09 01.06.20 030 (СВ) 6-12{13}  20000 м    1/0 
+15.2 +1 38 +15  1021.6  -0.4  761  290           
12 01.06.20 020 (С) 6-10{13}  20000 м    3/0 
+17.2 +1.5 35 +17  1020.3  -1.4  760  288           
15 01.06.20 030 (СВ) 3-4{10}  20000 м    9/0 2000 м 
+16.6 +4.6 45 +17  1018.7  -1.5  759  287           
18 01.06.20 040 (СВ) 6-13{13}  11000 м  слаб. дождь  9/0 2000 м 
+13.7 +6.5 62 +13  1018  -0.8  758  290    +17.8  0.0     
21 01.06.20 020 (С) 2-4{13}  20000 м  в посл. час дождь  10/0 2000 м 
+10.6 +7.7 82 +11  1018  -0.1  758  293         
00 02.06.20 020 (С) 2-4{05}  20000 м    ясно 
+7.9 +4.5 79 +8  1017.5  -0.5  758  296         
03 02.06.20 010 (С) 1-2{04}  20000 м    ясно 
+6.3 +3.3 81 +7  1017  -0.6  757  298           
06 02.06.20 030 (СВ) 4-6{06}  20000 м    ясно 
+10.7 +4.8 67 +10  1016.2  -0.6  757  293  +5.4       
09 02.06.20 030 (СВ) 4-9{09}  20000 м    1/0 
+15.6 +6 53 +16  1014.6  -1.5  756  287           
12 02.06.20 020 (С) 6-10{11}  20000 м    4/0 
+17.5 +4.4 42 +17  1012.9  -1.6  754  285           
15 02.06.20 040 (СВ) 4-9{11}  20000 м    3/0 
+18 +3.5 38 +18  1011.1  -1.8  753  284           
18 02.06.20 020 (С) 2-4{11}  20000 м    3/0 
+15.2 +3.6 46 +16  1010.2  -1  752  287    +18.5       
21 02.06.20 010 (С) 3-4{05}  20000 м    10/0 2000 м 
+12.6 +4.5 58 +12  1010.1  0.1  752  289           
00 03.06.20 360 (С) 2-3{04}  20000 м    9/0 2000 м 
+10.8 +5.9 72 +11  1009.2  -1  752  290           
03 03.06.20 030 (СВ) 3-5{05}  20000 м  в посл. час дождь  10/10 600 м 
+9.9 +6.8 81 +9  1008.3  -0.9  751  291      0.0     
06 03.06.20 040 (СВ) 3-5{06}  10 км  дымка  9/9 300 м 
+10.7 +8.5 86 +10  1008.2  751  290  +9.4         
09 03.06.20 040 (СВ) 3-5{06}  20000 м    9/0 
+13.7 +8.6 71 +14  1008.1  -0.2  751  287           
12 03.06.20 050 (СВ) 4-7{07}  20000 м    1/1 1000 м 
+16.2 +6.6 53 +16  1006.8  -1.2  750  284           
15 03.06.20 020 (С) 4-7{08}  20000 м    3/0 
+16.9 +6.6 51 +17  1005.6  -1.1  749  283           
18 03.06.20 120 (ЮВ) 5-8{09}  20000 м    6/0 
+13.5 +8.1 70 +13  1005.4  -0.3  749  286    +17.5       
21 03.06.20 040 (СВ) 1-2{08}  20000 м    6/0 2000 м 
+10.9 +9.3 90 +12  1005.3  -0.2  749  288           
00 04.06.20 070 (В) 2-3{03}  20000 м    ясно 
+8.4 +7.2 92 +8  1004.3  -1.1  748  291           
03 04.06.20 050 (СВ) 1-2{03}  17000 м    9/0 2000 м 
+6.9 +6.2 95 +8  1003.3  -0.9  747  293           
06 04.06.20 080 (В) 1-2{03}  20000 м    9/0 2000 м 
+11.6 +9.1 85 +13  1002.4  -0.8  746  287  +6.6         
Время (UTC), дата Ветер
(°,м/с) 
Видим.   Явления Облачность Т
(°С)
Тd
(°С)
f(%) Тe
(°С)
Pmin
(гПа)
dP
(гПа)
Po
(мм)
O2
(г/м3)
Тmin Tmax R s Состояние
почвы

Для получения пояснительной информации подведите курсор к названию столбца.

ПОГОДА в Кыбартаи - архив

Всё, что Вы хотите узнать о погоде в Кыбартаи - удобно и подробно!

Выберите нужную дату (начиная с 1 января 2019* года) и нажмите кнопку "Найти".
Будут отображены архивные сводки погоды по пункту Кыбартаи, начиная с указанной даты.


Отображать данные в формате CSV (для использования в таблицах Excel)


Внимание! Наш архив погоды предназначен исключительно для личного некоммерческого использования в познавательных целях. Если Вам необходимы официальные справки о состоянии погоды (для производственных, юридических, коммерческих и т.п. целей), обращайтесь в органы Росгидромета.

*Примечание: данная дата относится к архиву по метеостанциям СССР (Россия, СНГ, Балтия).
Архив по метеостанциям Зарубежной Европы и Азии (кроме Китая) хранится 10 дней, по другим регионам земного шара (Китай, Африка, Америка, Австралия, Океания) - 1 день.

Кыбартаи - район местоположения метеостанции


Название, широта, долгота, высота метеостанции:
Кыбартаи 54.6°ш. 22.8°д. 59 м над ур. моря [Литва]

Дополнительная информация

В oтличие oт бoльшинства пoгoдных сайтoв мы публикуем пoдрoбную метеoинфoрмацию в детальнoм прoфессиoнальнoм фoрмате.

Характеристики температуры и влажнoсти вoздуха измеряются на высoте 2 м в тени вдали oт зданий и деревьев.
Скoрoсть ветра измеряется на высoте 10 м (на урoвне рoста челoвека скoрoсть ветра ниже в 1.5-2 раза). Если метеoстанция нахoдится в гoрoде или в лесу, тo скoрoсть ветра занижена на 2-4 м/с пo сравнению с oткрытым местoм. Скoрoсть ветра над акватoриями крупных рек и oзёр, а также на вершинах хoлмoв на 2-5 м/с выше, чем в oбычных услoвиях.
Атмoсфернoе давление в разных тoчках местнoсти мoжет значительнo oтличаться oт давления на метеoстанции, в зависимoсти oт услoвий рельефа (при пoдъёме на 10 м давление пoнижается примернo на 1 мм рт.ст.).